FW7205 Weather Reports


Display with metric or nautical units.
time (UTC)temp
F
wind
direction
speed
MPH
gust
MPH
rain 1hr
in
rain 24hr
in
rain mn
in
humidity
%
barometer
mb
20260504191551 80 0 1.0 7.0 0.00 0.00 0.00 60 1012.0
20260504190053 80 158 1.0 5.0 0.00 0.00 0.00 60 1012.1
20260504184559 79 89 1.0 5.0 0.00 0.00 0.00 60 1012.6
20260504183059 79 0 2.0 7.0 0.00 0.00 0.00 60 1012.6
20260504181554 78 230 1.0 5.0 0.00 0.00 0.00 61 1012.9
20260504180052 78 89 1.0 5.0 0.00 0.00 0.00 60 1013.0
20260504174556 78 0 1.0 6.0 0.00 0.00 0.00 61 1013.3
20260504173059 77 184 1.0 4.0 0.00 0.00 0.00 61 1013.3
20260504171558 77 234 1.0 6.0 0.00 0.00 0.00 61 1013.6
20260504100103 60 0 0.0 0.0 0.00 0.00 0.00 78 1014.5
20260504081556 61 0 0.0 0.0 0.00 0.00 0.00 76 1014.8
20260504044554 65 0 0.0 2.0 0.00 0.00 0.00 68 1017.0
20260504043058 65 0 0.0 3.0 0.00 0.00 0.00 68 1017.1
20260504041553 65 0 0.0 4.0 0.00 0.00 0.00 67 1017.4
20260504040056 66 0 0.0 2.0 0.00 0.00 0.00 65 1017.2
20260504034552 66 0 0.0 2.0 0.00 0.00 0.00 64 1017.2
20260504033102 67 191 0.0 3.0 0.00 0.00 0.00 63 1017.1
20260504031554 67 0 0.0 2.0 0.00 0.00 0.00 62 1017.0
20260504030058 68 0 0.0 1.0 0.00 0.00 0.00 62 1017.0
20260504024554 68 0 0.0 0.0 0.00 0.00 0.00 62 1016.8
20260504023055 69 0 0.0 0.0 0.00 0.00 0.00 63 1016.6
20260504021558 70 0 0.0 0.0 0.00 0.00 0.00 59 1016.6
20260504020128 70 0 0.0 0.0 0.00 0.00 0.00 59 1016.6
20260504014604 71 0 0.0 1.0 0.00 0.00 0.00 59 1016.4
20260504013105 72 0 0.0 0.0 0.00 0.00 0.00 58 1016.4
20260504011554 73 0 0.0 0.0 0.00 0.00 0.00 57 1016.3
20260504010057 73 0 0.0 2.0 0.00 0.00 0.00 55 1016.3
20260504004628 74 0 0.0 0.0 0.00 0.00 0.00 54 1016.4
20260504003100 75 0 0.0 0.0 0.00 0.00 0.00 51 1016.4
20260504001621 75 0 0.0 1.0 0.00 0.00 0.00 50 1016.4
20260504000105 75 0 0.0 1.0 0.00 0.00 0.00 48 1016.7
20260503234605 76 0 0.0 2.0 0.00 0.00 0.00 46 1016.8
20260503233103 75 0 0.0 3.0 0.00 0.00 0.00 45 1016.7
20260503231555 76 0 0.0 2.0 0.00 0.00 0.00 47 1017.1
20260503230111 77 100 0.0 3.0 0.00 0.00 0.00 45 1016.9
20260503224606 77 360 0.0 3.0 0.00 0.00 0.00 44 1016.9
20260503223057 78 99 1.0 3.0 0.00 0.00 0.00 44 1017.1
20260503221604 78 211 0.0 3.0 0.00 0.00 0.00 43 1017.3
20260503220054 78 0 0.0 4.0 0.00 0.00 0.00 45 1017.4
20260503214600 78 135 0.0 3.0 0.00 0.00 0.00 46 1017.8
20260503213057 78 0 0.0 6.0 0.00 0.00 0.00 47 1017.7
20260503211554 79 166 0.0 3.0 0.00 0.00 0.00 46 1017.9
20260503210055 78 0 0.0 3.0 0.00 0.00 0.00 44 1018.2
20260503204554 79 0 1.0 3.0 0.00 0.00 0.00 44 1018.5
20260503203110 79 136 1.0 3.0 0.00 0.00 0.00 43 1018.6
20260503201556 78 0 1.0 4.0 0.00 0.00 0.00 43 1019.1
20260503200105 78 0 0.0 3.0 0.00 0.00 0.00 44 1019.2
20260503194557 79 0 1.0 4.0 0.00 0.00 0.00 42 1019.5
20260503193055 78 0 0.0 2.0 0.00 0.00 0.00 45 1019.9